This demonstration page uses our WeatherBlox Daily Observations layout. Learn more.

39.92423, -83.80882

Hourly Observations for May 29, 2016

Temp ( °F °C ) Dew Point ( °F °C ) Humidity (%) Winds ( mph kmh ) Pressure ( in mb ) Visibility ( mi km ) Precip ( " mm )
12:56 am 00:56 Clear 71 21.6 64 17.7 79 79 S 5 7 30.09 1019 10 16.0934 0 0
1:56 am 01:56 Clear 69 20.5 63 17.2 81 81 S 5 7 30.1 1019 10 16.0934 0 0
2:56 am 02:56 Clear 69 20.5 63 17.2 81 81 Calm 30.09 1019 10 16.0934 0 0
3:56 am 03:56 Mostly Cloudy 69 20.5 63 17.2 81 81 S 5 7 30.09 1019 10 16.0934 0 0
4:56 am 04:56 Mostly Cloudy 69 20.5 64 17.7 84 84 S 3 6 30.09 1019 10 16.0934 0 0
5:56 am 05:56 Mostly Cloudy 68 20 63 17.2 84 84 VRB 3 6 30.09 1019 10 16.0934 0 0
6:56 am 06:56 Sunny 68 20 64 17.7 87 87 SSW 3 6 30.11 1020 10 16.0934 0 0
7:56 am 07:56 Mostly Sunny 70 21.1 64 17.7 81 81 S 5 7 30.1 1019 10 16.0934 0 0
8:56 am 08:56 Mostly Sunny 72 22.2 65 18.3 79 79 SSW 5 7 30.11 1020 10 16.0934 0 0
9:56 am 09:56 Sunny 74 23.3 66 18.8 76 76 SSW 7 11 30.11 1020 10 16.0934 0 0
10:56 am 10:56 Sunny 78 25.5 67 19.4 69 69 WSW 8 13 30.11 1020 10 16.0934 0 0
11:56 am 11:56 Sunny 80 26.6 67 19.4 65 65 WSW 7 11 30.1 1019 10 16.0934 0 0
12:56 pm 12:56 Mostly Sunny 84 28.8 67 19.4 57 57 SSW 10 17 30.09 1019 10 16.0934 0 0
1:56 pm 13:56 Mostly Sunny 85 29.4 66 18.8 53 53 SSW 10 17 30.07 1018 10 16.0934 0 0
2:56 pm 14:56 Mostly Sunny 86 30 66 18.8 51 51 SSW 9 15 30.06 1018 10 16.0934 0 0
3:56 pm 15:56 Partly Cloudy 86 30 65 18.3 49 49 S 9 15 30.03 1017 10 16.0934 0 0
4:23 pm 16:23 Partly Cloudy with Light Thunderstorms 84 29 68 20 58 58 SW 12 19 30 1016 10 16.0934 0 0.0254
4:32 pm 16:32 Mostly Cloudy with Rain 79 26 72 22 79 79 WNW 8 13 30 1016 2.5 4.02335 0.03 0.762
4:41 pm 16:41 Mostly Cloudy with Light Rain 77 25 64 18 65 65 N 7 11 30.03 1017 8 12.87472 0.03 0.762
4:56 pm 16:56 Partly Cloudy 77 25 68 20 74 74 NNE 6 9 30.01 1016 10 16.0934 0.03 0.762
5:08 pm 17:08 Partly Cloudy with Thunderstorms 75 24 68 20 78 78 NNE 7 11 30 1016 10 16.0934 0 0
5:35 pm 17:35 Mostly Cloudy with Light Thunderstorms 72 22 64 18 78 78 WNW 15 24 30.03 1017 1.25 2.011675 0.15 3.81
5:38 pm 17:38 Cloudy with Heavy Thunderstorms 72 22 64 18 78 78 NW 10 17 30.03 1017 0.75 1.207005 0.3 7.62
5:40 pm 17:40 Cloudy with Heavy Thunderstorms 70 21 64 18 83 83 N 13 20 30 1016 0.25 0.402335 0.35 8.89
5:48 pm 17:48 Cloudy with Light Thunderstorms 70 21 64 18 83 83 NE 10 17 30 1016 0.75 1.207005 0.37 9.398
5:56 pm 17:56 Mostly Cloudy with Thunderstorms 70 21.1 64 17.7 81 81 ENE 12 19 30.01 1016 10 16.0934 0.37 9.398
6:33 pm 18:33 Cloudy with Heavy Thunderstorms 70 21 64 18 83 83 WSW 31 50 30.06 1018 N/A 0.3 7.62
6:40 pm 18:40 Cloudy with Thunderstorms 70 21 57 14 64 64 E 9 15 30.03 1017 0.25 0.402335 0.44 11.176
6:43 pm 18:43 Cloudy with Light Thunderstorms 70 21 57 14 64 64 SE 13 20 30.03 1017 0.5 0.80467 0.45 11.43
6:46 pm 18:46 Cloudy with Light Thunderstorms 70 21 59 15 69 69 SE 10 17 30.03 1017 1.5 2.41401 0.45 11.43
6:48 pm 18:48 Cloudy with Light Thunderstorms 70 21 61 16 73 73 SSE 17 28 30.03 1017 4 6.43736 0.45 11.43
6:56 pm 18:56 Cloudy with Thunderstorms 69 20.5 60 15.5 73 73 SSE 13 20 30.03 1017 3 4.82802 0.47 11.938
7:56 pm 19:56 Partly Cloudy with Nearby Thunderstorms 74 23.3 65 18.3 74 74 SSE 13 20 29.99 1016 10 16.0934 0.02 0.508
8:28 pm 20:28 Mostly Cloudy with Heavy Thunderstorms 72 22 66 19 83 83 Calm 30 1016 2.5 4.02335 0.06 1.524
8:32 pm 20:32 Mostly Cloudy with Thunderstorms 70 21 66 19 88 88 SSW 9 15 30 1016 1.25 2.011675 0.12 3.048
8:44 pm 20:44 Mostly Cloudy with Light Thunderstorms 70 21 64 18 83 83 S 13 20 30 1016 2 3.21868 0.19 4.826
8:47 pm 20:47 Windy with Storms Likely 72 22 63 17 73 73 SSW 30 48 29.97 1015 4 6.43736 0.19 4.826
8:56 pm 20:56 Mostly Cloudy with Thunderstorms 72 22.2 64 17.7 76 76 S 9 15 29.98 1015 2 3.21868 0.23 5.842
8:59 pm 20:59 Mostly Cloudy with Light Rain 72 22 64 18 78 78 S 8 13 29.97 1015 2.5 4.02335 0.01 0.254
9:02 pm 21:02 Mostly Cloudy with Light Thunderstorms 72 22 64 18 78 78 S 7 11 29.97 1015 6 9.65604 0.01 0.254
9:17 pm 21:17 Mostly Cloudy with Heavy Thunderstorms 72 22 64 18 78 78 SSW 9 15 30 1016 1.75 2.816345 0.14 3.556
9:22 pm 21:22 Mostly Cloudy with Heavy Rain 72 22 64 18 78 78 SSE 13 20 29.97 1015 1.5 2.41401 0.21 5.334
9:29 pm 21:29 Cloudy with Light Rain 73 23 64 18 74 74 SSE 14 22 29.97 1015 3 4.82802 0.21 5.334
9:37 pm 21:37 Mostly Cloudy 73 23 64 18 74 74 SSE 10 17 30 1016 10 16.0934 0.21 5.334
9:56 pm 21:56 Mostly Cloudy with Thunderstorms 73 22.7 64 17.7 73 73 SSE 13 20 30 1016 10 16.0934 0.21 5.334
10:11 pm 22:11 Mostly Cloudy 72 22 63 17 73 73 SSE 10 17 30 1016 10 16.0934 0 0
10:56 pm 22:56 Cloudy 70 21.1 64 17.7 81 81 SSE 9 15 30.01 1016 10 16.0934 0 0
11:56 pm 23:56 Cloudy 68 20 65 18.3 90 90 SSE 8 13 30.02 1017 10 16.0934 0 0

Powered by AerisWeather